This is the latest recevied weather packets stored in our database for station/object KE0YJJ-14. If no packets are shown the sender has not sent any weather packets the latest 10 day(s).
| Time | Temp. | Humidity | Pressure | Rain* | Wind** | Luminosity | Snow |
|---|---|---|---|---|---|---|---|
| 1777751696 | 15.56° C | 33% | - | 0 mm | - | - | - |
| 1777751391 | 15.56° C | 31% | - | 0 mm | - | - | - |
| 1777751089 | 15.56° C | 32% | - | 0 mm | - | - | - |
| 1777750784 | 15.56° C | 32% | - | 0 mm | - | - | - |
| 1777750482 | 15.56° C | 31% | - | 0 mm | - | - | - |
| 1777750177 | 15.56° C | 31% | - | 0 mm | - | - | - |
| 1777749874 | 15.56° C | 30% | - | 0 mm | - | - | - |
| 1777749571 | 15.56° C | 30% | - | 0 mm | - | - | - |
| 1777749269 | 15.56° C | 31% | - | 0 mm | - | - | - |
| 1777748967 | 15.56° C | 30% | - | 0 mm | - | - | - |
| 1777748664 | 15° C | 29% | - | 0 mm | - | - | - |
| 1777748360 | 15° C | 31% | - | 0 mm | - | - | - |
| 1777748055 | 15.56° C | 31% | - | 0 mm | - | - | - |
| 1777747753 | 15° C | 29% | - | 0 mm | - | - | - |
| 1777747371 | 13.89° C | 32% | - | 0 mm | - | - | - |
| 1777747068 | 13.89° C | 32% | - | 0 mm | - | - | - |
| 1777746764 | 13.89° C | 32% | - | 0 mm | - | - | - |
| 1777746460 | 15° C | 31% | - | 0 mm | - | - | - |
| 1777746155 | 15° C | 33% | - | 0 mm | - | - | - |
| 1777745852 | 14.44° C | 33% | - | 0 mm | - | - | - |
| 1777745552 | 14.44° C | 33% | - | 0 mm | - | - | - |
| 1777745248 | 13.89° C | 32% | - | 0 mm | - | - | - |
| 1777744946 | 14.44° C | 33% | - | 0 mm | - | - | - |
| 1777744645 | 15° C | 34% | - | 0 mm | - | - | - |
| 1777744340 | 14.44° C | 32% | - | 0 mm | - | - | - |
* Rain latest hour (hover to see other rain measurements)
** Current wind speed in m/s (hover to see current wind gust speed)